RH
66 70 70 66 76 80 80 78 80 79 78 78 76 65 51 44 42 41 41 43 49 59 71 79 84 86 90 90 87 83 86 85 79 81 61 39 42 36 59 87 84 70 63
60 67 76 78 80 78 76 77 79 74 69 59 47 41 38 35 33 31 31 31 32 35 37 40 48 58 68 77 81 88 85 81 80 85 83 61 40 46 38 50 76 71 63
71 72 75 80 77 73 66 70 63 53 46 41 36 33 31 29 28 28 27 26 25 25 26 27 32 36 41 49 64 78 89 91 92 91 88 81 61 43 54 40 42 45 59
75 74 73 68 63 55 46 43 41 39 36 33 31 30 27 23 20 18 18 17 17 18 19 21 23 24 27 33 41 54 69 81 90 94 92 86 82 60 44 66 76 59 65
74 66 72 73 51 40 38 37 35 34 33 31 28 21 19 18 17 17 18 18 18 17 16 15 15 15 17 21 24 30 40 52 73 86 92 93 87 80 60 50 59 79 84
71 74 81 66 42 39 38 37 36 35 32 26 22 21 20 19 19 19 18 17 17 17 17 17 17 17 16 14 14 16 20 24 38 57 72 88 93 92 83 66 58 56 66
75 84 75 54 47 44 42 41 38 31 27 26 24 22 21 20 19 18 18 18 18 18 18 18 18 17 17 17 17 16 14 14 17 21 34 56 74 88 95 94 84 66 68
88 82 72 61 56 48 45 41 34 29 28 27 25 24 22 21 19 18 21 23 24 25 25 25 24 24 23 21 19 17 16 16 16 15 15 18 31 54 78 84 95 89 74
84 80 66 65 54 48 45 41 40 34 30 29 28 26 23 22 21 24 24 23 21 20 20 19 19 19 21 22 22 21 20 19 18 16 16 16 15 17 30 55 76 85 94
80 71 68 63 53 48 49 48 43 38 35 33 29 28 25 24 27 24 20 18 18 18 19 19 18 18 18 17 16 15 14 14 13 13 16 18 17 16 16 16 29 54 68
76 70 67 59 52 52 54 49 44 37 38 36 30 27 26 27 25 19 18 18 18 18 16 16 16 16 17 16 14 11 8 9 10 10 10 11 14 18 20 20 18 18 32
69 66 63 56 54 53 51 46 39 32 34 35 32 28 28 25 19 19 20 20 18 16 15 14 14 15 15 15 13 10 8 8 8 8 8 9 11 17 22 27 38 37 22
67 66 60 53 54 52 44 34 28 30 30 32 32 30 24 21 23 27 28 27 24 21 18 16 16 17 16 14 13 11 9 8 7 7 9 11 14 19 23 28 89 67 36
66 63 53 54 48 35 21 21 24 28 30 32 31 24 21 25 29 31 32 31 29 27 24 20 18 16 13 11 10 9 8 8 8 10 12 15 20 22 26 32 68 57 52
59 50 49 40 24 19 21 22 24 27 28 25 21 22 28 32 34 35 36 36 34 31 29 25 22 18 15 12 10 9 8 8 13 14 16 20 23 28 28 34 82 67 57
46 42 28 22 21 22 20 20 22 21 20 21 26 32 35 37 37 39 40 40 40 36 32 30 27 22 16 12 10 9 8 10 20 24 26 30 31 36 38 45 61 76 76
29 24 23 22 22 18 17 17 17 19 23 30 33 33 33 33 36 40 43 44 44 41 35 33 30 24 17 13 11 9 13 22 31 36 39 40 45 44 48 55 60 64 72
23 24 24 22 20 18 17 19 23 28 34 33 33 30 32 34 36 41 45 46 48 44 38 35 32 24 16 13 11 24 44 46 45 47 47 50 57 58 64 64 62 63 61
24 26 24 22 22 19 21 28 32 35 34 29 30 34 34 31 30 35 46 49 50 46 41 37 32 24 18 14 19 50 67 66 65 65 64 67 68 65 62 64 63 64 65
29 28 24 26 23 21 29 33 36 32 28 32 29 28 28 29 30 34 44 48 47 47 43 39 33 25 20 15 31 71 81 81 80 79 80 82 83 81 79 82 84 82 82
30 28 26 28 22 25 32 35 30 28 32 28 28 30 30 30 30 35 41 47 48 46 45 40 33 27 22 17 19 84 89 90 88 86 87 87 85 83 84 84 86 88 86
30 29 30 29 21 30 34 31 27 32 28 30 32 31 30 30 30 33 37 46 48 49 49 41 36 31 28 22 21 49 89 89 92 92 93 92 87 86 86 83 80 78 80
30 31 31 27 24 30 33 27 33 30 31 33 33 32 31 30 30 33 36 43 48 49 50 46 42 36 34 30 27 28 48 75 55 91 96 94 92 89 86 84 80 78 74
30 33 33 28 27 33 33 31 34 32 33 34 34 34 31 30 30 31 35 41 46 50 51 48 46 41 37 36 34 33 35 41 51 70 82 89 83 67 60 58 70 79 77
36 36 36 30 30 33 29 34 32 30 32 36 36 34 31 30 30 32 36 42 47 52 53 52 49 47 43 42 40 38 38 45 60 61 70 49 39 40 31 32 29 60 79
41 39 37 32 29 30 27 33 32 32 34 37 37 35 34 33 30 30 32 37 43 49 53 54 54 52 48 47 45 42 42 42 48 52 50 43 42 42 42 53 54 55 73
Wind_Speed
11 9 8 5 4 2 1 2 3 3 4 5 6 8 8 8 8 8 8 8 8 9 8 7 6 5 6 6 7 7 8 9 8 8 8 6 4 4 8 6 6 4 3
9 8 7 5 2 1 1 2 4 5 5 6 7 7 8 8 8 8 8 8 9 9 9 10 11 12 11 10 9 7 8 9 10 9 8 7 6 5 7 10 10 9 7
8 7 7 4 0 1 2 4 5 5 5 6 7 8 9 9 10 11 11 11 11 11 11 12 12 12 13 12 11 10 9 9 9 9 9 8 8 8 7 9 11 11 11
8 6 6 3 1 2 3 3 4 5 6 7 8 9 11 11 12 12 12 12 12 13 13 14 14 14 14 14 13 13 13 13 10 10 11 11 10 9 9 10 10 12 11
9 8 4 1 1 1 2 4 5 6 7 9 10 10 10 10 10 10 11 11 12 12 11 12 13 15 16 16 15 15 16 15 14 13 12 13 13 12 12 12 13 12 13
9 6 2 0 1 2 3 5 6 8 9 10 10 10 9 10 11 13 13 13 13 14 13 13 13 13 14 14 16 17 18 17 16 15 15 15 14 15 16 15 15 14 15
7 4 1 1 2 3 4 6 7 9 10 9 9 10 11 12 13 14 13 13 13 13 13 13 12 12 13 13 14 15 16 17 17 17 17 17 17 16 16 17 18 18 17
6 5 4 3 4 4 5 7 8 10 10 9 9 10 12 12 13 12 12 12 12 12 13 13 14 14 13 12 13 13 15 16 17 17 17 18 19 19 19 20 19 20 20
9 7 5 5 5 6 6 8 10 10 10 10 11 11 12 13 12 11 11 12 13 14 14 15 15 15 15 15 15 14 15 15 16 17 17 17 17 19 21 21 22 21 21
11 9 7 7 6 7 8 10 11 11 10 11 11 12 12 12 11 12 12 13 14 15 16 16 16 17 17 17 17 17 17 17 17 17 17 17 17 17 17 20 23 24 24
13 10 9 9 8 9 10 12 13 12 11 11 11 12 12 12 12 13 14 15 16 17 17 17 18 18 18 18 18 19 19 18 17 17 17 17 17 17 17 17 19 23 25
13 11 11 11 11 11 12 14 14 13 12 11 11 11 11 12 12 13 15 16 17 17 18 18 18 18 18 18 18 18 17 17 17 17 16 16 17 17 16 15 16 20 24
12 13 13 12 12 13 15 15 12 11 10 10 10 10 11 11 12 13 14 14 15 16 16 17 17 17 17 18 18 18 16 16 16 14 14 14 15 16 15 12 13 17 20
14 14 13 13 14 15 14 11 9 8 8 9 10 10 10 11 12 14 15 16 17 17 17 17 17 17 18 18 19 18 16 15 14 12 11 11 12 13 12 11 13 16 16
16 14 13 14 14 11 8 7 7 7 7 8 9 10 10 12 13 15 16 17 17 18 18 18 18 19 19 18 17 17 16 14 12 10 9 9 9 10 11 10 8 16 16
15 14 14 12 9 8 7 6 7 7 7 8 9 9 10 13 15 16 16 17 17 18 18 18 19 20 20 20 18 17 15 13 10 8 7 6 5 7 9 7 8 12 15
14 14 12 10 9 7 7 7 6 7 7 7 8 11 13 15 16 16 17 17 17 17 17 18 18 19 20 18 18 16 13 10 7 5 5 5 5 5 6 7 8 12 14
15 13 11 10 9 7 7 6 6 6 6 7 10 12 13 14 15 16 16 16 17 17 18 18 19 17 18 17 15 11 9 8 5 3 4 5 5 5 5 6 7 11 12
14 13 12 10 8 8 7 6 5 5 7 10 11 11 12 13 14 14 15 15 16 16 17 17 17 19 17 15 11 7 7 7 6 5 4 4 4 4 5 7 7 8 5
16 13 12 10 9 8 7 6 5 7 8 9 10 11 11 12 12 12 13 14 15 15 15 15 15 16 16 14 7 4 5 6 6 6 5 5 4 4 3 3 2 1 2
17 14 12 11 9 8 8 6 6 7 8 8 9 10 11 12 12 12 11 12 13 13 14 14 14 14 14 12 6 2 1 4 3 3 4 4 3 3 3 2 2 2 2
17 14 13 11 9 9 8 7 7 7 6 6 8 10 11 12 12 12 11 11 11 11 12 13 13 13 13 13 10 2 2 1 1 0 0 1 2 3 3 2 2 1 1
20 15 11 9 9 9 9 9 8 7 6 6 8 9 11 11 11 11 11 10 10 10 10 11 11 11 12 11 10 6 3 2 4 4 3 3 4 5 6 5 3 1 1
20 16 12 10 10 11 11 10 8 7 7 8 8 9 10 11 11 11 11 10 10 10 10 11 11 11 10 10 9 7 5 5 3 2 4 5 8 8 8 8 8 6 3
19 16 12 11 12 12 12 10 9 8 8 8 8 8 8 9 9 9 9 9 9 10 10 11 11 10 10 10 9 7 6 6 3 3 4 5 7 6 6 4 3 8 7
19 17 14 12 12 13 12 11 11 9 9 8 9 8 8 9 10 10 9 9 9 9 10 11 10 10 10 10 9 9 7 5 6 4 5 9 7 7 4 5 3 3 6
Wind_Direction
171 167 157 152 143 122 3 349 329 321 319 319 320 319 322 323 319 315 311 305 298 295 295 299 306 304 315 321 306 308 314 314 315 322 327 322 305 276 233 240 241 256 271
152 139 148 133 109 12 321 270 300 314 314 315 319 323 325 324 322 318 314 309 306 301 296 292 288 287 290 294 304 306 299 297 302 299 306 309 300 280 256 244 247 256 256
145 123 137 121 250 242 277 286 303 313 319 322 325 323 321 320 317 313 310 307 303 299 298 296 295 294 294 293 292 287 284 287 284 286 283 288 289 283 263 254 251 250 246
146 131 125 113 310 284 293 306 312 316 319 319 318 316 315 313 311 311 310 308 303 299 296 294 293 291 291 291 290 286 280 280 292 286 281 277 275 273 264 253 258 255 247
148 139 113 32 321 304 315 313 312 313 314 314 315 317 320 322 324 323 321 320 317 313 310 306 301 297 293 290 287 283 281 281 281 283 285 277 272 270 261 256 252 257 258
150 143 98 8 277 300 306 307 308 312 314 317 319 322 324 326 325 323 322 320 320 317 314 312 309 306 302 298 292 288 285 283 278 276 274 276 275 269 267 262 257 258 259
159 161 163 210 269 292 302 310 314 316 316 317 316 320 324 325 325 324 325 326 326 325 323 322 318 314 310 305 301 295 292 288 282 276 272 270 269 272 269 269 264 256 256
182 194 201 239 278 288 301 310 317 319 316 316 319 321 322 324 325 325 327 328 328 327 326 324 321 318 316 312 307 302 298 293 290 284 277 271 268 267 267 268 270 265 259
200 210 221 266 284 296 300 309 317 318 316 319 319 320 320 324 327 329 329 328 326 324 322 319 317 316 315 313 309 305 300 297 294 290 286 281 274 269 266 265 269 270 266
214 223 243 269 282 290 289 303 314 315 313 315 317 321 323 324 327 328 327 326 324 321 318 316 315 314 313 312 309 305 301 298 295 292 289 288 285 280 274 269 266 269 268
216 231 252 270 278 289 293 304 309 310 308 312 314 318 321 322 324 325 327 327 327 325 323 320 316 312 310 309 308 307 305 302 298 292 289 286 284 282 279 275 274 268 268
225 243 258 268 275 285 292 297 299 299 303 307 310 316 319 322 326 327 329 331 331 330 327 323 319 317 315 313 311 308 305 301 297 293 289 284 280 279 280 283 284 278 270
237 250 258 265 277 285 290 290 288 288 293 301 308 315 318 321 322 324 327 329 328 327 326 325 325 324 322 318 314 310 308 302 298 293 287 282 277 276 276 283 291 288 291
244 251 258 271 279 286 286 283 282 286 296 301 306 312 316 316 320 325 327 327 327 327 330 330 331 331 328 324 317 312 309 305 301 296 292 289 288 288 292 287 287 291 296
246 252 262 272 277 274 273 278 285 291 295 299 305 310 317 322 323 322 324 326 326 326 328 331 333 334 332 328 322 313 310 307 304 298 293 289 292 300 293 289 274 287 284
245 254 262 267 262 262 269 278 286 293 301 308 311 313 315 316 318 318 319 322 324 325 327 331 333 336 334 333 328 322 316 313 307 301 292 293 309 295 288 281 260 264 286
245 252 255 254 251 256 268 280 288 296 300 306 309 314 315 315 315 316 317 319 322 324 326 330 332 335 333 334 329 326 323 322 315 300 288 292 305 289 269 259 263 271 271
243 247 243 240 242 256 266 270 274 282 290 303 311 313 313 316 316 314 313 315 320 323 327 331 332 335 337 339 338 337 348 353 349 331 314 303 292 279 272 272 277 279 278
237 235 234 236 244 254 256 260 266 274 297 308 311 312 315 314 315 312 309 313 319 323 326 330 335 336 343 349 346 352 11 21 21 13 2 349 323 302 286 281 284 288 290
225 224 226 231 242 252 252 252 260 292 304 311 317 322 322 320 317 312 309 312 318 324 328 331 336 339 345 354 353 2 25 37 42 48 50 42 32 31 28 13 49 83 175
219 221 223 230 238 243 244 246 278 294 304 313 319 324 326 323 321 315 312 311 318 325 329 333 339 343 348 0 9 311 41 63 59 53 51 41 30 35 37 23 41 93 117
219 217 221 229 236 236 238 255 273 279 293 307 320 324 326 326 325 321 319 312 315 325 331 334 339 345 351 0 9 1 223 248 353 170 55 345 357 7 348 335 1 9 150
213 216 217 228 233 237 242 257 264 280 298 313 320 325 327 328 327 325 324 318 315 323 328 331 336 342 351 358 4 11 338 297 313 241 244 282 306 309 307 311 307 278 274
209 210 216 228 233 235 243 256 264 282 296 310 318 327 329 331 331 332 328 321 315 317 322 325 329 336 341 350 356 355 351 327 326 313 262 278 311 307 301 285 260 255 247
207 213 219 230 235 238 244 252 262 275 291 305 316 322 330 333 337 335 331 327 320 315 316 321 325 327 332 337 342 342 341 339 341 331 314 318 321 324 342 341 270 222 225
209 215 225 239 243 241 248 250 257 272 287 298 306 319 334 339 338 336 334 330 322 314 313 316 319 319 322 326 328 330 330 326 316 313 312 324 337 332 351 28 55 153 192